When you browse on this site, cookies collect data to enhance your experience and personalize the content and advertising you see.
Visit our Privacy Policy to learn more. By continuing to use the site, you agree to this use of cookies and data.
  • In Switzerland
  • List of Countries
  • For 7 days
  • Water Temperature
  • Satellite Maps
  • Weather Map
  • Weather Widgets
  • user-avatar
    Login

    Hourly Weather Benguela

    Today, 25 May, Saturday

    Time Temperature Precipitation Wind Pressure Humidity
    00:00 +27°C° 0 mm 1 mps 759 mmHg 72%
    01:00 +27°C° 0 mm 1 mps 759 mmHg 71%
    02:00 +27°C° 0 mm 1 mps 759 mmHg 70%
    03:00 +27°C° 0 mm 1 mps 758 mmHg 70%
    04:00 +27°C° 0 mm 1 mps 758 mmHg 70%
    05:00 +27°C° 0 mm 1 mps 758 mmHg 67%
    06:00 +27°C° 0 mm 1 mps 758 mmHg 64%
    07:00 +28°C° 0 mm 1 mps 759 mmHg 60%
    08:00 +30°C° 0 mm 2 mps 759 mmHg 52%
    09:00 +34°C° 0 mm 2 mps 759 mmHg 43%
    10:00 +36°C° 0 mm 2 mps 759 mmHg 35%
    11:00 +37°C° 0 mm 3 mps 758 mmHg 35%
    12:00 +38°C° 0 mm 4 mps 758 mmHg 35%
    13:00 +40°C° 0 mm 4 mps 757 mmHg 35%
    14:00 +37°C° 0 mm 4 mps 757 mmHg 40%
    15:00 +36°C° 0 mm 3 mps 756 mmHg 44%
    16:00 +35°C° 0 mm 3 mps 756 mmHg 48%
    17:00 +32°C° 0 mm 2 mps 756 mmHg 56%
    18:00 +30°C° 0 mm 2 mps 757 mmHg 64%
    19:00 +28°C° 0 mm 1 mps 757 mmHg 72%
    20:00 +28°C° 0 mm 1 mps 757 mmHg 72%
    21:00 +28°C° 0 mm 1 mps 758 mmHg 72%
    22:00 +28°C° 0 mm 1 mps 759 mmHg 71%
    23:00 +28°C° 0 mm 1 mps 759 mmHg 70%

    Tomorrow, 26 May, Sunday

    Time Temperature Precipitation Wind Pressure Humidity
    00:00 +27°C° 0 mm 1 mps 759 mmHg 68%
    01:00 +27°C° 0 mm 1 mps 759 mmHg 67%
    02:00 +27°C° 0 mm 2 mps 759 mmHg 62%
    03:00 +27°C° 0 mm 2 mps 758 mmHg 57%
    04:00 +27°C° 0 mm 2 mps 758 mmHg 52%
    05:00 +27°C° 0 mm 2 mps 758 mmHg 46%
    06:00 +27°C° 0 mm 3 mps 758 mmHg 39%
    07:00 +27°C° 0 mm 3 mps 759 mmHg 33%
    08:00 +30°C° 0 mm 3 mps 759 mmHg 28%
    09:00 +34°C° 0 mm 2 mps 759 mmHg 22%
    10:00 +38°C° 0 mm 2 mps 759 mmHg 17%
    11:00 +38°C° 0 mm 3 mps 758 mmHg 19%
    12:00 +40°C° 0 mm 4 mps 757 mmHg 21%
    13:00 +40°C° 0 mm 5 mps 757 mmHg 23%
    14:00 +39°C° 0 mm 5 mps 756 mmHg 30%
    15:00 +36°C° 0 mm 4 mps 756 mmHg 36%
    16:00 +35°C° 0 mm 4 mps 756 mmHg 42%
    17:00 +33°C° 0 mm 3 mps 756 mmHg 51%
    18:00 +29°C° 0 mm 2 mps 756 mmHg 60%
    19:00 +27°C° 0 mm 1 mps 757 mmHg 69%
    20:00 +27°C° 0 mm 1 mps 757 mmHg 67%
    21:00 +27°C° 0 mm 1 mps 758 mmHg 65%
    22:00 +27°C° 0 mm 1 mps 758 mmHg 63%
    23:00 +27°C° 0 mm 1 mps 758 mmHg 62%

    Day after tomorrow, 27 May, Monday

    Time Temperature Precipitation Wind Pressure Humidity
    00:00 +26°C° 0 mm 1 mps 758 mmHg 60%
    01:00 +26°C° 0 mm 1 mps 758 mmHg 59%
    02:00 +26°C° 0 mm 1 mps 758 mmHg 55%
    03:00 +26°C° 0 mm 1 mps 757 mmHg 51%
    04:00 +26°C° 0 mm 2 mps 757 mmHg 48%
    05:00 +26°C° 0 mm 2 mps 757 mmHg 44%
    06:00 +26°C° 0 mm 2 mps 758 mmHg 41%
    07:00 +26°C° 0 mm 2 mps 758 mmHg 37%
    08:00 +29°C° 0 mm 2 mps 758 mmHg 32%
    09:00 +32°C° 0 mm 2 mps 758 mmHg 27%
    10:00 +36°C° 0 mm 2 mps 758 mmHg 22%
    11:00 +37°C° 0 mm 2 mps 758 mmHg 23%
    12:00 +37°C° 0 mm 3 mps 757 mmHg 24%
    13:00 +38°C° 0 mm 4 mps 756 mmHg 25%
    14:00 +37°C° 0 mm 4 mps 756 mmHg 29%
    15:00 +36°C° 0 mm 4 mps 755 mmHg 33%
    16:00 +35°C° 0 mm 3 mps 755 mmHg 36%
    17:00 +33°C° 0 mm 3 mps 755 mmHg 45%
    18:00 +29°C° 0 mm 2 mps 756 mmHg 54%
    19:00 +27°C° 0 mm 1 mps 757 mmHg 62%
    20:00 +27°C° 0 mm 1 mps 757 mmHg 61%
    21:00 +27°C° 0 mm 1 mps 757 mmHg 60%
    22:00 +27°C° 0 mm 1 mps 758 mmHg 58%
    23:00 +26°C° 0 mm 1 mps 758 mmHg 58%

    28 May, Tuesday

    Time Temperature Precipitation Wind Pressure Humidity
    00:00 +26°C° 0 mm 1 mps 758 mmHg 57%
    01:00 +26°C° 0 mm 1 mps 758 mmHg 57%
    02:00 +25°C° 0 mm 1 mps 758 mmHg 55%
    03:00 +25°C° 0 mm 1 mps 757 mmHg 54%
    04:00 +25°C° 0 mm 1 mps 757 mmHg 52%
    05:00 +25°C° 0 mm 1 mps 758 mmHg 51%
    06:00 +26°C° 0 mm 1 mps 758 mmHg 49%
    07:00 +26°C° 0 mm 1 mps 758 mmHg 47%
    08:00 +28°C° 0 mm 1 mps 758 mmHg 43%
    09:00 +30°C° 0 mm 2 mps 758 mmHg 38%
    10:00 +34°C° 0 mm 2 mps 759 mmHg 33%
    11:00 +34°C° 0 mm 3 mps 758 mmHg 36%
    12:00 +35°C° 0 mm 4 mps 757 mmHg 38%
    13:00 +35°C° 0 mm 4 mps 757 mmHg 40%
    14:00 +34°C° 0 mm 4 mps 757 mmHg 46%
    15:00 +33°C° 0 mm 3 mps 756 mmHg 51%
    16:00 +31°C° 0 mm 3 mps 756 mmHg 56%
    17:00 +29°C° 0 mm 2 mps 757 mmHg 65%
    18:00 +28°C° 0 mm 1 mps 757 mmHg 73%
    19:00 +24°C° 0 mm 0 mps 758 mmHg 82%
    20:00 +24°C° 0 mm 0 mps 758 mmHg 83%
    21:00 +23°C° 0 mm 0 mps 759 mmHg 83%
    22:00 +23°C° 0 mm 0 mps 759 mmHg 84%
    23:00 +25°C° 0 mm 1 mps 759 mmHg 83%

    29 May, Wednesday

    Time Temperature Precipitation Wind Pressure Humidity
    00:00 +25°C° 0 mm 1 mps 759 mmHg 81%
    01:00 +25°C° 0 mm 1 mps 758 mmHg 80%
    02:00 +24°C° 0 mm 1 mps 758 mmHg 79%
    03:00 +24°C° 0 mm 1 mps 758 mmHg 77%
    04:00 +24°C° 0 mm 1 mps 758 mmHg 76%
    05:00 +24°C° 0 mm 1 mps 759 mmHg 74%
    06:00 +24°C° 0 mm 1 mps 759 mmHg 71%
    07:00 +23°C° 0 mm 0 mps 759 mmHg 69%
    08:00 +27°C° 0 mm 1 mps 760 mmHg 60%
    09:00 +29°C° 0 mm 1 mps 760 mmHg 52%
    10:00 +32°C° 0 mm 1 mps 760 mmHg 43%
    11:00 +34°C° 0 mm 2 mps 759 mmHg 41%
    12:00 +35°C° 0 mm 3 mps 758 mmHg 39%
    13:00 +36°C° 0 mm 4 mps 758 mmHg 37%
    14:00 +35°C° 0 mm 4 mps 757 mmHg 41%
    15:00 +34°C° 0 mm 4 mps 757 mmHg 45%
    16:00 +33°C° 0 mm 4 mps 757 mmHg 49%
    17:00 +30°C° 0 mm 3 mps 757 mmHg 58%
    18:00 +28°C° 0 mm 3 mps 758 mmHg 67%
    19:00 +25°C° 0 mm 2 mps 758 mmHg 76%
    20:00 +25°C° 0 mm 2 mps 759 mmHg 76%
    21:00 +25°C° 0 mm 2 mps 759 mmHg 76%
    22:00 +25°C° 0 mm 1 mps 759 mmHg 76%
    23:00 +24°C° 0 mm 1 mps 759 mmHg 76%

    30 May, Thursday

    Time Temperature Precipitation Wind Pressure Humidity
    00:00 +24°C° 0 mm 1 mps 759 mmHg 75%
    01:00 +24°C° 0 mm 1 mps 759 mmHg 75%
    02:00 +24°C° 0 mm 1 mps 758 mmHg 71%
    03:00 +24°C° 0 mm 1 mps 758 mmHg 67%
    04:00 +24°C° 0 mm 2 mps 758 mmHg 63%
    05:00 +24°C° 0 mm 1 mps 759 mmHg 59%
    06:00 +24°C° 0 mm 1 mps 759 mmHg 55%
    07:00 +24°C° 0 mm 1 mps 759 mmHg 51%
    08:00 +27°C° 0 mm 1 mps 759 mmHg 43%
    09:00 +30°C° 0 mm 1 mps 759 mmHg 35%
    10:00 +33°C° 0 mm 1 mps 759 mmHg 27%
    11:00 +35°C° 0 mm 2 mps 759 mmHg 27%
    12:00 +36°C° 0 mm 3 mps 758 mmHg 26%
    13:00 +37°C° 0 mm 5 mps 757 mmHg 26%
    14:00 +36°C° 0 mm 5 mps 757 mmHg 29%
    15:00 +34°C° 0 mm 4 mps 756 mmHg 32%
    16:00 +33°C° 0 mm 4 mps 756 mmHg 36%
    17:00 +30°C° 0 mm 3 mps 757 mmHg 45%
    18:00 +28°C° 0 mm 3 mps 757 mmHg 54%
    19:00 +25°C° 0 mm 2 mps 758 mmHg 62%
    20:00 +25°C° 0 mm 2 mps 758 mmHg 64%
    21:00 +25°C° 0 mm 1 mps 759 mmHg 66%
    22:00 +24°C° 0 mm 1 mps 759 mmHg 68%
    23:00 +24°C° 0 mm 1 mps 759 mmHg 66%
    Show more